Weather in Korsun-Shevchenkivskyi

Ukraine / Cherkassi District     49˚25′02″N   31˚15′19″E
temp.,
°C
wind,
m/s
gust,
m/s
humid.,
%
clouds,
%
prec.,
mm/h
press.,
hPa
HPBL,
m
2 december, wed
wed223:00ene3698100 0.4 1027350
02:00ne3598100 0.8 1027231
05:00−1˚ene3597100 0.4 1026231
08:00ene3598100 0.8 1027207
11:00+1˚e46100100 0.6 1027304
14:00+1˚e4699100 0.8 1026280
17:00e4699100 0.3 1026249
20:00+1˚e4699100 0.4 1026223
3 december, thu
thu323:00+1˚ese3699100 0.1 1026239
02:00+1˚e35100100 0.3 1026209
05:00+1˚e36100100 0.6 1025171
08:00+2˚ese34100100 0.7 1025126
11:00+2˚ese36100100 0.3 1025186
14:00+4˚ese3697100 0.4 1024304
17:00+3˚ese3698100 0.0 1024182
20:00+3˚ese4895100 0.1 1024268
4 december, fri
fri423:00+2˚ese379558 0.0 1024163
02:00+3˚ese389676 0.0 1023216
05:00+4˚se4994100 0.0 1023320
08:00+4˚se51190100 0.0 1023397
11:00+5˚se61077100 0.0 1023540
14:00+6˚ese697467 0.0 1023619
17:00+3˚ese511880 0.0 1023378
20:00+2˚ese511902 0.0 1024420
5 december, sat
sat523:00+3˚se5108861 0.0 1024508
02:00+4˚se598781 0.0 1024519
05:00+3˚se51088100 0.0 1024491
08:00+3˚se6991100 0.0 1025533
11:00+3˚se6988100 0.0 1026567
14:00+4˚se6983100 0.0 1026585
17:00+3˚se6108199 0.0 1026548
20:00+2˚se5118476 0.0 1028425
6 december, sun
sun623:00+1˚se5118558 0.0 1028409
02:00ese4108929 0.0 1029369
05:00−1˚ese511876 0.0 1028379
08:00−2˚ese611793 0.0 1028438
11:00+1˚se711650 0.0 1028581
14:00+2˚ese711610 0.0 1028659
17:00ese612680 0.0 1028473
20:00−1˚ese613650 0.0 1028522